Location: Kernascl�den
(48.0062°N, 3.3198°W)
Time: 12:42:47
(UTC+00:00)

CZ-4C R/B - Pass Details

Date: 21 January 2021
Orbit: 408 x 487 km, 97.7° (Epoch: 06 March)

Event Time Altitude Azimuth Distance (km) Brightness Sun altitude
Rises 17:54:23 0° 6° (N) 2,353 6.3 -9.7°
Reaches altitude 10° 17:56:26 10° 359° (N) 1,485 5.4 -10.0°
Maximum altitude 17:59:25 40° 289° (WNW) 626 4.1 -10.5°
Drops below altitude 10° 18:02:24 10° 218° (SW) 1,482 6.4 -10.9°
Sets 18:04:27 0° 210° (SSW) 2,346 7.3 -11.3°
